Regional Weather Roundup
Issued by NWS

Home | Current Version | Previous Version | Text Only | Print | Product List | Glossary Off
Versions: 1 2 3 4 5 6 7 8 9 10 11 12 13 14 15 16 17 18 19 20 21 22 23 24 25 26 27 28 29

000
ASUS45 KCYS 290310
RWRWY

WYOMING REGIONAL WEATHER ROUNDUP
NATIONAL WEATHER SERVICE CHEYENNE WY
900 PM MDT THU APR 28 2016

NOTE:  "FAIR" INDICATES FEW OR NO CLOUDS BELOW 12,000 FEET
WITH NO SIGNIFICANT WEATHER AND/OR OBSTRUCTIONS TO VISIBILITY.

WYZ001-290400-
YELLOWSTONE NATIONAL PARK

CITY           SKY/WX    TMP DP  RH WIND       PRES   REMARKS
LK YELLOWSTONE   N/A     32  22  66 VRB3      29.95R
W YELLOWSTONE  NOT AVBL

$$
WYZ002>013-054>058-071-098>099-290400-
NORTHERN WYOMING

CITY           SKY/WX    TMP DP  RH WIND       PRES   REMARKS
JACKSON        CLOUDY    39  27  60 NE20      29.88R WCI  30
CODY           CLOUDY    36  28  75 N9        30.04S WCI  29
GREYBULL       CLOUDY    44  28  53 N6        30.03R
WORLAND        CLOUDY    42  35  76 SE5       30.04R
SHERIDAN       CLOUDY    37  34  89 CALM      30.09R
BUFFALO          N/A    N/A N/A N/A MISG      30.09R
GILLETTE       CLOUDY    35  33  92 CALM      30.09R
HULETT         CLOUDY    36  32  87 E6        30.11R WCI  31
NEWCASTLE      DRIZZLE   36  36 100 S8        30.10R WCI  29

$$
WYZ014>020-022>026-101>103-290400-
CENTRAL WYOMING

CITY           SKY/WX    TMP DP  RH WIND       PRES   REMARKS
BIG PINEY      CLOUDY    33  26  75 SW12      29.96R WCI  24
PINEDALE       CLOUDY    34  27  75 SW8       29.95R WCI  27
DUBOIS         FLURRIES  28  27  93 SE16G24   29.98R WCI  17
LANDER         CLOUDY    35  28  75 E8        30.02R WCI  29
RIVERTON       CLOUDY    36  27  69 E7        30.04R WCI  30
CASPER         CLOUDY    34  27  75 E10       30.05R WCI  26
DOUGLAS        CLOUDY    34  31  88 E5        30.09R WCI  30

$$
WYZ021-027>030-104>119-290400-
SOUTHERN WYOMING

CITY           SKY/WX    TMP DP  RH WIND       PRES   REMARKS
EVANSTON       CLOUDY    32  27  81 NE13      29.91R WCI  22
KEMMERER         N/A     30  30 100 E10       29.95R WCI  21
FORT BRIDGER   LGT SNOW  32  32 100 E12G17    29.95R WCI  23
ROCK SPRINGS   CLOUDY    32  26  78 NE22G29   29.95R WCI  19
DIXON          MOCLDY    40  34  79 CALM      29.93R
RAWLINS        CLOUDY    31  27  85 NE20G26   29.96R WCI  19
SARATOGA       CLOUDY    34  34 100 W3        29.93R
LARAMIE        MOCLDY    30  26  85 SE14      29.96F WCI  19
CHEYENNE       CLOUDY    34  32  92 S8        30.04R WCI  27
TORRINGTON     CLOUDY    36  35  96 E6        30.09R WCI  31
PINE BLUFFS    CLOUDY    34  34 100 E6        30.07R WCI  29

$$




USA.gov is the U.S. government's official web portal to all federal, state and local government web resources and services.